Hooper Bay, AK

5:16 AM AKDT on April 25, 2017 (GMT -0800)
Hooper Bay

Weather History for PAHP - January, 2013

Change the Weather History Date:

Thursday, January 24, 2013

  Actual Average Record
Temperature  
Mean Temperature 66 °F -  
Max Temperature 71 °F 9 °F 71 °F (2013)
Min Temperature 62 °F 0 °F -18 °F (2006)
Cooling Degree Days 2    
Growing Degree Days 16 (Base 50)    
Moisture  
Dew Point 4 °F    
Average Humidity 9    
Maximum Humidity 11    
Minimum Humidity 7    
Precipitation  
Precipitation 0.00 in - - ()
Sea Level Pressure  
Sea Level Pressure 29.79 in    
Wind  
Wind Speed - (North)    
Max Wind Speed -    
Max Gust Speed -    
Visibility 9 miles    
Events      
Averages and records for this station are not official NWS values.
T = Trace of Precipitation, MM = Missing Value Source: NWS Daily Summary

Daily Weather History Graph

Daily Weather History Graph

Search for Another Location

Airport or City:

Trip Planner

Search our weather history database for the weather conditions in past years. The results will help you decide how hot, cold, wet, or windy it might be!

Date:

Astronomy

Jan. 24, 2013 Rise Set
Actual Time 10:45 AM AKST 5:49 PM AKST
Civil Twilight 9:52 AM AKST 6:42 PM AKST
Nautical Twilight 8:57 AM AKST 7:37 PM AKST
Astronomical Twilight 8:05 AM AKST 8:29 PM AKST
Moon 3:52 PM AKST (1/24) 9:03 AM AKST (1/24)
Length of Visible Light 8h 50m
Length of Day
7h 04m
Waxing Gibbous, 95% of the Moon is Illuminated
Jan 24
Waxing Gibbous
Jan 26
Full
Feb 3
Last Quarter
Feb 9
New
Feb 17
First Quarter

Hourly Weather History & Observations

Time (AKST) Temp. Dew Point Humidity Pressure Visibility Wind Dir Wind Speed Gust Speed Precip Events Conditions
12:16 AM 71.6 °F 10.4 °F 9% 29.62 in 10.0 mi North - - N/A   Partly Cloudy
12:36 AM 71.6 °F 10.4 °F 9% 29.62 in 10.0 mi North - - N/A   Mostly Cloudy
12:56 AM 71.6 °F 8.6 °F 9% 29.62 in 10.0 mi North - - N/A   Overcast
1:16 AM 71.6 °F 10.4 °F 9% 29.63 in 10.0 mi North - - N/A   Mostly Cloudy
1:36 AM 71.6 °F 12.2 °F 10% 29.64 in 10.0 mi North - - N/A   Mostly Cloudy
1:56 AM 71.6 °F 6.8 °F 8% 29.64 in 10.0 mi North - - N/A   Mostly Cloudy
2:16 AM 71.6 °F 8.6 °F 9% 29.65 in 10.0 mi North - - N/A   Partly Cloudy
2:36 AM 69.8 °F 8.6 °F 9% 29.65 in 10.0 mi North - - N/A   Clear
2:56 AM 69.8 °F 6.8 °F 9% 29.66 in 10.0 mi North - - N/A   Clear
3:16 AM 68.0 °F 6.8 °F 9% 29.67 in 10.0 mi North - - N/A   Clear
3:36 AM 68.0 °F 6.8 °F 9% 29.68 in 10.0 mi North - - N/A   Clear
3:56 AM 68.0 °F 3.2 °F 8% 29.68 in 10.0 mi North - - N/A   Clear
4:16 AM 66.2 °F 6.8 °F 10% 29.69 in 10.0 mi North - - N/A   Clear
4:36 AM 66.2 °F 8.6 °F 11% 29.69 in 10.0 mi North - - N/A   Clear
4:56 AM 68.0 °F 3.2 °F 8% 29.70 in 10.0 mi North - - N/A   Clear
5:16 AM 68.0 °F 6.8 °F 9% 29.69 in 10.0 mi North - - N/A   Clear
5:36 AM 66.2 °F 6.8 °F 10% 29.70 in 10.0 mi North - - N/A   Clear
5:56 AM 66.2 °F 3.2 °F 8% 29.69 in 10.0 mi North - - N/A   Clear
6:16 AM 66.2 °F 6.8 °F 10% 29.70 in 10.0 mi North - - N/A   Clear
6:36 AM 66.2 °F 5.0 °F 9% 29.71 in 10.0 mi North - - N/A   Clear
6:56 AM 68.0 °F 1.4 °F 7% 29.72 in 10.0 mi North - - N/A   Clear
7:16 AM 68.0 °F 8.6 °F 10% 29.72 in 10.0 mi North - - N/A   Clear
7:36 AM 66.2 °F 5.0 °F 9% 29.72 in 10.0 mi North - - N/A   Clear
7:56 AM 66.2 °F 5.0 °F 9% 29.73 in 10.0 mi North - - N/A   Clear
8:16 AM 68.0 °F 6.8 °F 9% 29.73 in 10.0 mi North - - N/A   Clear
8:36 AM 68.0 °F 5.0 °F 8% 29.74 in 10.0 mi North - - N/A   Clear
8:56 AM 68.0 °F 6.8 °F 9% 29.75 in 10.0 mi North - - N/A   Clear
9:16 AM 64.4 °F 6.8 °F 10% 29.74 in 10.0 mi North - - N/A   Clear
9:36 AM 68.0 °F 5.0 °F 8% 29.74 in 10.0 mi North - - N/A   Clear
9:56 AM 68.0 °F 6.8 °F 9% 29.74 in 10.0 mi North - - N/A   Clear
10:16 AM 68.0 °F 8.6 °F 10% 29.75 in 10.0 mi North - - N/A   Clear
10:36 AM 66.2 °F 6.8 °F 10% 29.77 in 10.0 mi North - - N/A   Clear
10:56 AM 68.0 °F 3.2 °F 8% 29.76 in 5.0 mi North - - N/A   Clear
11:16 AM 66.2 °F 6.8 °F 10% 29.78 in 5.0 mi North - - N/A   Clear
11:36 AM 66.2 °F 5.0 °F 9% 29.79 in 9.0 mi North - - N/A   Clear
11:56 AM 66.2 °F 3.2 °F 8% 29.79 in 10.0 mi North - - N/A   Clear
12:16 PM 66.2 °F 6.8 °F 10% 29.79 in 8.0 mi North - - N/A   Clear
12:36 PM 66.2 °F 3.2 °F 8% 29.80 in 5.0 mi North - - N/A   Clear
12:56 PM 64.4 °F 3.2 °F 9% 29.81 in 9.0 mi North - - N/A   Clear
1:16 PM 64.4 °F 3.2 °F 9% 29.81 in 8.0 mi North - - N/A   Clear
1:36 PM 64.4 °F 3.2 °F 9% 29.83 in 9.0 mi North - - N/A   Clear
1:56 PM 64.4 °F -0.4 °F 7% 29.82 in 10.0 mi North - - N/A   Clear
2:16 PM 64.4 °F 3.2 °F 9% 29.83 in 5.0 mi North - - N/A   Clear
2:36 PM 64.4 °F 1.4 °F 8% 29.83 in 10.0 mi North - - N/A   Clear
2:56 PM 64.4 °F 3.2 °F 9% 29.83 in 10.0 mi North - - N/A   Clear
3:16 PM 64.4 °F 3.2 °F 9% 29.85 in 10.0 mi North - - N/A   Clear
3:36 PM 64.4 °F 1.4 °F 8% 29.85 in 7.0 mi North - - N/A   Clear
3:56 PM 64.4 °F 1.4 °F 8% 29.84 in 9.0 mi North - - N/A   Clear
4:16 PM 64.4 °F 5.0 °F 10% 29.86 in 5.0 mi North - - N/A   Clear
4:36 PM 64.4 °F -0.4 °F 7% 29.85 in 9.0 mi North - - N/A   Clear
4:56 PM 64.4 °F 1.4 °F 8% 29.86 in 9.0 mi North - - N/A   Clear
5:16 PM 64.4 °F 1.4 °F 8% 29.86 in 4.0 mi North - - N/A   Clear
5:36 PM 62.6 °F 1.4 °F 9% 29.86 in 2.5 mi North - - N/A   Clear
5:56 PM 62.6 °F -0.4 °F 8% 29.87 in 5.0 mi North - - N/A   Clear
6:16 PM 62.6 °F 1.4 °F 9% 29.88 in 7.0 mi North - - N/A   Clear
6:36 PM 62.6 °F 1.4 °F 9% 29.89 in 7.0 mi North - - N/A   Clear
6:56 PM 62.6 °F -0.4 °F 8% 29.88 in 2.5 mi North - - N/A   Clear
7:16 PM 62.6 °F 1.4 °F 9% 29.88 in 3.0 mi North - - N/A   Clear
7:36 PM 62.6 °F -2.2 °F 7% 29.88 in 3.0 mi North - - N/A   Clear
7:56 PM 62.6 °F -0.4 °F 8% 29.90 in 3.0 mi North - - N/A   Clear
8:16 PM 62.6 °F -0.4 °F 8% 29.91 in 4.0 mi North - - N/A   Clear
8:36 PM 62.6 °F 1.4 °F 9% 29.92 in 10.0 mi North - - N/A   Clear
8:56 PM 62.6 °F -0.4 °F 8% 29.94 in 10.0 mi North - - N/A   Clear
9:16 PM 62.6 °F -0.4 °F 8% 29.95 in 10.0 mi North - - N/A   Clear
9:36 PM 62.6 °F -2.2 °F 7% 29.96 in 10.0 mi North - - N/A   Clear
9:56 PM 62.6 °F 1.4 °F 9% 29.96 in 10.0 mi North - - N/A   Clear
10:16 PM 62.6 °F -0.4 °F 8% 29.96 in 10.0 mi North - - N/A   Clear
10:36 PM 62.6 °F 1.4 °F 9% 29.96 in 7.0 mi North - - N/A   Clear
10:56 PM 62.6 °F -0.4 °F 8% 29.96 in 10.0 mi North - - N/A   Clear
11:16 PM 62.6 °F 1.4 °F 9% 29.97 in 10.0 mi North - - N/A   Clear
11:36 PM 62.6 °F -2.2 °F 7% 29.98 in 10.0 mi North - - N/A   Clear
11:56 PM 62.6 °F -0.4 °F 8% 29.99 in 10.0 mi North - - N/A   Clear